Date String (YYYY-MM-DD hh:mm:ss) UTC,Instrument flags,absolute air pressure of the measurement (hPa),sample flow rate (lpm),inlet stack bypass flow (lpm),air temperature of the measurement (°C),ambient temperature measured by the external sensor (°C),aerosol sample conditioner tube jacket temperature (°C),OPC LED temperature (°C),internal box temperature (°C),relative humidity of the measurement (%),span deviation,mass concentration of particles derived from Lorenz-Mie calculation of OPC scattering (μg/m³),mass concentration of particles derived from Lorenz-Mie calculation of OPC scattering (μg/m³),mass concentration of particles derived from Lorenz-Mie calculation of OPC scattering (μg/m³)
DateTimeUTC,F1_M11,P_M11,Q1_M11,Q2_M11,T1_M11,T2_M11,T3_M11,T4_M11,T5_M11,U1_M11,ZSPAN_M11,X2_M11,X0_M11,X1_M11
2023-06-29 12:00:00,SystemResetWarning,0833.5,5.00,000.00,029.6,028.2,000.0,038.1,031.2,32.7,0000.0,0005.12,0011.71,0004.12
2023-06-29 12:01:00,SystemResetWarning,0833.4,5.00,000.00,029.6,028.3,000.0,038.1,031.2,32.6,0000.0,0005.11,0011.14,0004.11
2023-06-29 12:02:00,SystemResetWarning,0833.4,5.00,000.00,029.6,028.4,000.0,038.1,031.2,32.5,0000.0,0005.11,0011.44,0004.11
2023-06-29 12:03:00,SystemResetWarning,0833.2,5.00,000.00,029.6,028.4,000.0,038.2,031.3,32.5,0000.0,0005.08,0012.17,0004.11
2023-06-29 12:04:00,SystemResetWarning,0832.9,5.00,000.00,029.7,028.5,000.0,038.2,031.3,32.6,0000.0,0005.02,0012.15,0004.10
2023-06-29 12:05:00,SystemResetWarning,0832.9,5.00,000.00,029.7,028.5,000.0,038.2,031.3,32.5,0000.0,0005.07,0013.17,0004.10
2023-06-29 12:06:00,SystemResetWarning,0832.9,5.00,000.00,029.7,028.6,000.0,038.2,031.3,32.6,0000.0,0005.07,0012.83,0004.09
2023-06-29 12:07:00,SystemResetWarning,0832.9,5.00,000.00,029.7,028.6,000.0,038.2,031.4,32.4,0000.0,0005.11,0012.68,0004.09
2023-06-29 12:08:00,SystemResetWarning,0832.9,5.00,000.00,029.8,028.7,000.0,038.2,031.4,32.3,0000.0,0005.11,0012.59,0004.07
2023-06-29 12:09:00,SystemResetWarning,0832.9,5.00,000.00,029.8,028.7,000.0,038.3,031.4,32.3,0000.0,0005.15,0012.75,0004.07
2023-06-29 12:10:00,SystemResetWarning,0833.0,5.00,000.00,029.8,028.7,000.0,038.3,031.5,32.4,0000.0,0005.14,0013.17,0004.06
2023-06-29 12:11:00,SystemResetWarning,0833.0,5.00,000.00,029.9,028.8,000.0,038.3,031.4,32.4,0000.0,0005.15,0013.44,0004.05
2023-06-29 12:12:00,SystemResetWarning,0832.9,5.00,000.00,029.9,028.7,000.0,038.3,031.5,32.4,0000.0,0005.12,0013.45,0004.05
2023-06-29 12:13:00,SystemResetWarning,0832.9,4.98,000.00,029.9,027.1,000.0,038.2,031.3,32.4,0000.0,0005.14,0013.20,0004.04
2023-06-29 12:14:00,SystemResetWarning,0832.9,5.00,000.00,029.8,025.7,000.0,038.1,031.1,32.4,0000.0,0005.15,0012.95,0004.03
2023-06-29 12:15:00,SystemResetWarning,0833.0,5.01,000.00,029.7,025.4,000.0,038.1,030.8,32.6,0000.0,0005.12,0012.82,0004.03
2023-06-29 12:16:00,SystemResetWarning,0832.9,5.01,000.00,029.5,025.7,000.0,038.1,030.7,32.8,0000.0,0005.09,0011.94,0004.02
2023-06-29 12:17:00,SystemResetWarning,0833.1,4.99,000.00,029.5,026.1,000.0,038.1,030.7,33.0,0000.0,0005.15,0011.99,0004.03
2023-06-29 12:18:00,SystemResetWarning,0833.2,4.99,000.00,029.5,026.5,000.0,038.1,030.8,33.2,0000.0,0005.14,0012.30,0004.03
2023-06-29 12:19:00,SystemResetWarning,0833.1,5.00,000.00,029.5,026.9,000.0,038.1,030.9,33.3,0000.0,0005.12,0012.68,0004.03
2023-06-29 12:20:00,SystemResetWarning,0833.0,5.00,000.00,029.5,027.2,000.0,038.1,031.0,33.3,0000.0,0005.13,0012.69,0004.03
2023-06-29 12:21:00,SystemResetWarning,0833.0,5.00,000.00,029.5,027.4,000.0,038.1,031.0,33.4,0000.0,0005.12,0012.14,0004.04
2023-06-29 12:22:00,SystemResetWarning,0833.0,5.01,000.00,029.5,027.6,000.0,038.1,031.0,33.4,0000.0,0005.12,0012.75,0004.03
2023-06-29 12:23:00,SystemResetWarning,0833.0,5.00,000.00,029.5,027.8,000.0,038.1,031.1,33.4,0000.0,0005.19,0012.45,0004.03
2023-06-29 12:24:00,SystemResetWarning,0833.0,4.99,000.00,029.5,028.0,000.0,038.1,031.1,33.3,0000.0,0005.28,0012.74,0004.06
2023-06-29 12:25:00,SystemResetWarning,0833.0,5.00,000.00,029.6,028.1,000.0,038.1,031.2,33.3,0000.0,0005.24,0012.46,0004.06
2023-06-29 12:26:00,SystemResetWarning,0833.0,5.00,000.00,029.6,028.2,000.0,038.1,031.2,33.3,0000.0,0005.23,0012.55,0004.06
2023-06-29 12:27:00,SystemResetWarning,0833.0,5.00,000.00,029.6,028.3,000.0,038.2,031.2,33.0,0000.0,0005.24,0013.05,0004.06
2023-06-29 12:28:00,SystemResetWarning,0833.2,5.00,000.00,029.6,028.4,000.0,038.2,031.3,32.8,0000.0,0005.20,0013.72,0004.06
2023-06-29 12:29:00,SystemResetWarning,0833.3,5.01,000.00,029.7,028.5,000.0,038.2,031.3,32.9,0000.0,0005.21,0013.54,0004.07
2023-06-29 12:30:00,SystemResetWarning,0833.1,5.00,000.00,029.7,028.5,000.0,038.2,031.3,33.0,0000.0,0005.23,0013.22,0004.07
2023-06-29 12:31:00,SystemResetWarning,0833.2,4.99,000.00,029.7,028.6,000.0,038.2,031.4,32.7,0000.1,0005.20,0013.18,0004.07
2023-06-29 12:32:00,SystemResetWarning,0833.2,4.99,000.00,029.7,028.6,000.0,038.2,031.4,32.7,0000.0,0005.16,0013.15,0004.07
2023-06-29 12:33:00,SystemResetWarning,0833.2,5.00,000.00,029.8,028.7,000.0,038.3,031.4,32.7,0000.0,0005.13,0013.06,0004.07
2023-06-29 12:34:00,SystemResetWarning,0833.2,5.01,000.00,029.8,028.7,000.0,038.3,031.4,32.7,0000.0,0005.11,0013.37,0004.06
2023-06-29 12:35:00,SystemResetWarning,0833.2,5.00,000.00,029.8,028.7,000.0,038.3,031.4,32.7,0000.0,0005.03,0013.00,0004.05
2023-06-29 12:36:00,SystemResetWarning,0833.3,4.99,000.00,029.8,028.7,000.0,038.3,031.5,32.6,0000.0,0005.03,0013.09,0004.04
2023-06-29 12:37:00,SystemResetWarning,0833.2,4.99,000.00,029.8,027.1,000.0,038.2,031.3,32.4,0000.0,0005.07,0014.07,0004.04
2023-06-29 12:38:00,SystemResetWarning,0833.2,5.00,000.00,029.8,025.7,000.0,038.1,031.0,32.6,0000.0,0005.04,0014.25,0004.04
2023-06-29 12:39:00,SystemResetWarning,0833.2,5.01,000.00,029.6,025.4,000.0,038.1,030.7,32.7,0000.0,0005.02,0013.38,0004.05
2023-06-29 12:40:00,SystemResetWarning,0833.2,5.01,000.00,029.5,025.7,000.0,038.1,030.6,33.1,0000.0,0005.04,0013.44,0004.05
2023-06-29 12:41:00,SystemResetWarning,0833.2,5.00,000.00,029.4,026.1,000.0,038.1,030.7,33.2,0000.0,0005.07,0013.41,0004.05
2023-06-29 12:42:00,SystemResetWarning,0833.2,5.00,000.00,029.4,026.5,000.0,038.1,030.8,32.9,0000.0,0005.07,0013.33,0004.06
2023-06-29 12:43:00,SystemResetWarning,0833.2,5.01,000.00,029.4,026.8,000.0,038.1,030.9,32.7,0000.0,0005.11,0013.73,0004.08
2023-06-29 12:44:00,SystemResetWarning,0833.3,5.00,000.00,029.4,027.1,000.0,038.1,030.9,32.9,-000.3,0005.18,0013.76,0004.10
2023-06-29 12:45:00,SystemResetWarning,0833.3,5.00,000.00,029.4,027.4,000.0,038.1,031.0,32.8,-000.1,0005.17,0014.18,0004.11
2023-06-29 12:46:00,SystemResetWarning,0833.3,4.99,000.00,029.5,027.6,000.0,038.1,031.0,32.7,-002.8,0005.17,0014.99,0004.12
2023-06-29 12:47:00,SystemResetWarning,0833.4,5.00,000.00,029.5,027.8,000.0,038.1,031.1,32.7,-003.3,0005.21,0015.81,0004.13
2023-06-29 12:48:00,SystemResetWarning,0833.4,5.01,000.00,029.5,028.0,000.0,038.1,031.1,32.9,-003.4,0005.24,0014.98,0004.14
2023-06-29 12:49:00,SystemResetWarning,0833.4,5.01,000.00,029.5,028.1,000.0,038.1,031.1,33.0,-003.2,0005.27,0014.30,0004.14
2023-06-29 12:50:00,SystemResetWarning,0833.4,4.99,000.00,029.6,028.2,000.0,038.1,031.2,32.9,-003.1,0005.28,0014.40,0004.14
2023-06-29 12:51:00,SystemResetWarning,0833.4,4.99,000.00,029.6,028.3,000.0,038.1,031.2,32.7,-003.2,0005.22,0014.62,0004.13
2023-06-29 12:52:00,SystemResetWarning,0833.4,5.01,000.00,029.6,028.4,000.0,038.2,031.2,32.7,-002.9,0005.17,0014.92,0004.13
2023-06-29 12:53:00,SystemResetWarning,0833.4,5.01,000.00,029.6,028.4,000.0,038.2,031.3,32.6,-002.7,0005.17,0015.22,0004.12
2023-06-29 12:54:00,SystemResetWarning,0833.4,5.00,000.00,029.7,028.5,000.0,038.2,031.3,32.4,-002.7,0005.15,0014.92,0004.11
2023-06-29 12:55:00,SystemResetWarning,0833.4,4.99,000.00,029.7,028.5,000.0,038.2,031.3,32.2,-002.4,0005.12,0014.40,0004.10
2023-06-29 12:56:00,SystemResetWarning,0833.4,4.99,000.00,029.7,028.6,000.0,038.2,031.4,32.4,-002.5,0005.12,0013.39,0004.09
2023-06-29 12:57:00,SystemResetWarning,0833.4,5.00,000.00,029.7,028.6,000.0,038.2,031.4,32.4,-002.1,0005.11,0012.82,0004.07
2023-06-29 12:58:00,SystemResetWarning,0833.4,5.02,000.00,029.8,028.7,000.0,038.3,031.4,32.2,-001.5,0005.06,0011.74,0004.06
2023-06-29 12:59:00,SystemResetWarning,0833.4,4.99,000.00,029.8,028.7,000.0,038.3,031.4,32.2,0000.0,0005.04,0011.47,0004.05
